Weather History for EGPM - November, 2013

Change the Weather History Date:

Saturday, November 2, 2013

  Actual Average Record
Temperature  
Mean Temperature 44 °F -  
Max Temperature 48 °F 45 °F 55 °F (2001)
Min Temperature 41 °F 40 °F 37 °F (2012)
Degree Days  
Heating Degree Days 20    
Moisture  
Dew Point 38 °F    
Average Humidity 75    
Maximum Humidity 87    
Minimum Humidity 66    
Precipitation  
Precipitation 0.00 in - - ()
Sea Level Pressure  
Sea Level Pressure 29.25 in    
Wind  
Wind Speed 13 mph ()    
Max Wind Speed 24 mph    
Max Gust Speed 38 mph    
Visibility 6.0 miles    
Events Rain    
Averages and records for this station are not official NWS values.
T = Trace of Precipitation, MM = Missing Value Source: Averaged Metar Reports

Daily Weather History Graph

Daily Weather History Graph

Search for Another Location

Airport or City:

Trip Planner

Search our weather history database for the weather conditions in past years. The results will help you decide how hot, cold, wet, or windy it might be!

Date:

Astronomy

Nov. 02, 2013 Rise Set
Actual Time 7:32 AM GMT 4:04 PM GMT
Civil Twilight 6:45 AM GMT 4:50 PM GMT
Nautical Twilight 5:55 AM GMT 5:40 PM GMT
Astronomical Twilight 5:06 AM GMT 6:29 PM GMT
Moon 5:58 AM GMT 3:35 PM GMT
Length of Visible Light 10h 04m
Length of Day
8h 32m
Waning Crescent, 1% of the Moon is Illuminated
Nov 2
Waning Crescent
Nov 3
New
Nov 10
First Quarter
Nov 17
Full
Nov 25
Last Quarter

Hourly Weather History & Observations

Time (GMT) Temp. Windchill Dew Point Humidity Pressure Visibility Wind Dir Wind Speed Gust Speed Precip Events Conditions
12:20 AM 46.4 °F 39.2 °F 35.6 °F 66% 29.24 in 6.2 mi SW 18.4 mph - N/A   Mostly Cloudy
12:50 AM 44.6 °F 35.7 °F 35.6 °F 71% 29.24 in - SW 24.2 mph - N/A Rain Rain
1:20 AM 44.6 °F 36.6 °F 39.2 °F 81% 29.24 in 6.2 mi SW 19.6 mph - N/A   Scattered Clouds
1:50 AM 44.6 °F 36.6 °F 39.2 °F 81% 29.24 in 6.2 mi SW 19.6 mph - N/A   Partly Cloudy
2:20 AM 46.4 °F 39.0 °F 41.0 °F 81% 29.24 in 6.2 mi WSW 19.6 mph - N/A Rain Light Rain
2:50 AM 46.4 °F 38.5 °F 37.4 °F 71% 29.24 in 6.2 mi WSW 21.9 mph - N/A   Mostly Cloudy
3:20 AM 46.4 °F 39.0 °F 35.6 °F 66% 29.24 in 6.2 mi WSW 19.6 mph - N/A   Scattered Clouds
3:50 AM 46.4 °F 39.0 °F 39.2 °F 76% 29.24 in 3.7 mi WSW 19.6 mph - N/A Rain Rain
4:20 AM 46.4 °F 39.0 °F 39.2 °F 76% 29.24 in 6.2 mi WSW 19.6 mph - N/A Rain Rain
4:50 AM 44.6 °F 37.8 °F 39.2 °F 81% 29.27 in 6.2 mi West 15.0 mph - N/A   Partly Cloudy
5:20 AM 44.6 °F 37.4 °F 35.6 °F 71% 29.27 in 6.2 mi West 16.1 mph - N/A   Scattered Clouds
5:50 AM 44.6 °F 37.2 °F 35.6 °F 71% 29.27 in 6.2 mi West 17.3 mph - N/A   Mostly Cloudy
6:20 AM 42.8 °F 36.2 °F 37.4 °F 81% 29.30 in 6.2 mi WSW 12.7 mph - N/A   Unknown
6:50 AM 42.8 °F 35.4 °F 37.4 °F 81% 29.30 in 6.2 mi WSW 15.0 mph - N/A   Partly Cloudy
7:20 AM 42.8 °F 36.6 °F 33.8 °F 70% 29.33 in 6.2 mi SW 11.5 mph - N/A   Scattered Clouds
7:50 AM 41.0 °F 34.7 °F 35.6 °F 81% 29.33 in 6.2 mi SSW 10.4 mph - N/A   Partly Cloudy
8:20 AM 42.8 °F 36.6 °F 37.4 °F 81% 29.33 in 6.2 mi SSW 11.5 mph - N/A   Partly Cloudy
8:50 AM 42.8 °F 36.6 °F 35.6 °F 76% 29.33 in 6.2 mi SSW 11.5 mph - N/A   Partly Cloudy
9:20 AM 42.8 °F 37.0 °F 35.6 °F 76% 29.33 in 6.2 mi SSW 10.4 mph - N/A   Partly Cloudy
9:50 AM 46.4 °F 41.1 °F 37.4 °F 71% 29.33 in 6.2 mi SSW 11.5 mph - N/A   Partly Cloudy
10:20 AM 46.4 °F 41.5 °F 37.4 °F 71% 29.33 in 6.2 mi SSW 10.4 mph - N/A   Partly Cloudy
10:50 AM 48.2 °F - 39.2 °F 71% 29.33 in 6.2 mi SW 6.9 mph - N/A   Partly Cloudy
11:20 AM 48.2 °F - 39.2 °F 71% 29.33 in 6.2 mi SSW 10.4 mph - N/A   Partly Cloudy
11:50 AM 48.2 °F - 37.4 °F 66% 29.33 in 6.2 mi SSW 8.1 mph - N/A   Partly Cloudy
12:20 PM 46.4 °F 42.4 °F 41.0 °F 81% 29.33 in 6.2 mi South 8.1 mph - N/A   Partly Cloudy
12:50 PM 46.4 °F 42.4 °F 39.2 °F 76% 29.33 in 6.2 mi South 8.1 mph - N/A   Partly Cloudy
1:20 PM 46.4 °F 42.9 °F 37.4 °F 71% 29.33 in 6.2 mi South 6.9 mph - N/A   Partly Cloudy
1:50 PM 46.4 °F 42.9 °F 39.2 °F 76% 29.30 in 6.2 mi South 6.9 mph - N/A   Partly Cloudy
2:20 PM 46.4 °F 41.5 °F 41.0 °F 81% 29.30 in 6.2 mi South 10.4 mph - N/A   Partly Cloudy
2:50 PM 46.4 °F 43.5 °F 41.0 °F 81% 29.30 in 6.2 mi South 5.8 mph - N/A   Partly Cloudy
3:20 PM 44.6 °F 40.2 °F 41.0 °F 87% 29.27 in 6.2 mi SSE 8.1 mph - N/A   Partly Cloudy
3:50 PM 44.6 °F 39.2 °F 37.4 °F 76% 29.27 in 6.2 mi SSE 10.4 mph - N/A   Partly Cloudy
4:20 PM 44.6 °F 40.2 °F 37.4 °F 76% 29.27 in 6.2 mi SE 8.1 mph - N/A   Partly Cloudy
4:50 PM 44.6 °F 39.7 °F 37.4 °F 76% 29.24 in 6.2 mi SSE 9.2 mph - N/A   Partly Cloudy
5:20 PM 44.6 °F 40.7 °F 37.4 °F 76% 29.24 in 6.2 mi SSE 6.9 mph - N/A   Partly Cloudy
5:50 PM 42.8 °F 38.6 °F 35.6 °F 76% 29.24 in 6.2 mi SE 6.9 mph - N/A   Unknown
6:20 PM 44.6 °F 40.7 °F 35.6 °F 71% 29.21 in 6.2 mi ESE 6.9 mph - N/A   Unknown
6:50 PM 44.6 °F 39.7 °F 37.4 °F 76% 29.21 in 6.2 mi ESE 9.2 mph - N/A   Unknown
7:20 PM 44.6 °F 38.8 °F 37.4 °F 76% 29.21 in 6.2 mi ESE 11.5 mph - N/A   Unknown
7:50 PM 46.4 °F 41.1 °F 37.4 °F 71% 29.18 in 6.2 mi ESE 11.5 mph - N/A   Unknown
8:20 PM 46.4 °F 41.9 °F 37.4 °F 71% 29.18 in 6.2 mi East 9.2 mph - N/A   Partly Cloudy
8:50 PM 42.8 °F 41.1 °F 33.8 °F 70% 29.18 in 6.2 mi East 3.5 mph - N/A Rain Rain
9:20 PM 44.6 °F 36.9 °F 35.6 °F 71% 29.15 in 6.2 mi East 18.4 mph - N/A Rain Rain
9:50 PM 44.6 °F 39.2 °F 39.2 °F 81% 29.12 in 6.2 mi ENE 10.4 mph - N/A Rain Light Rain
10:20 PM 44.6 °F 36.6 °F 37.4 °F 76% 29.09 in 6.2 mi East 19.6 mph 38.0 mph N/A Rain Rain
10:50 PM 42.8 °F 37.5 °F 37.4 °F 81% 29.09 in 4.3 mi ENE 9.2 mph - N/A Rain Heavy Rain
11:20 PM 44.6 °F 36.9 °F 39.2 °F 81% 29.06 in 6.2 mi ENE 18.4 mph - N/A Rain Rain
11:50 PM 44.6 °F 36.6 °F 37.4 °F 76% 29.03 in 3.1 mi ENE 19.6 mph 31.1 mph N/A Rain Heavy Rain